Voltar ao catálogo

RADUGA 1-8

AtivoMilitarGEO
NORAD 34264·PAYLOAD·🇷🇺 Russia

Lançado Feb 28, 2009 de Baikonur Cosmodrome

Loading…

TLE

AtualizadoSource: Space-Track

Época: Sep 14, 2026, 07:32 UTC

1 34264U 09010A   26257.31442449 -.00000356  00000-0  00000-0 0  9997
2 34264  12.2850  40.8447 0010210  29.8030 159.4448  0.99825601 64063

Acompanhe RADUGA 1-8 em tempo real com AllMySat

Download on the App Store